Location: Chuathbaluk
(61.5726°N, 159.2454°W)
Time: 08:21:40
(UTC+00:00)

XW-2F - Pass Details

Date: 25 January 2021
Orbit: 499 x 520 km, 97.5° (Epoch: 09 March)

Event Time Altitude Azimuth Distance (km) Brightness Sun altitude
Rises 03:22:06 0° 160° (SSE) 2,621 ? -6.8°
Reaches altitude 10° 03:24:11 10° 160° (SSE) 1,742 ? -7.0°
Maximum altitude 03:27:57 86° 72° (ENE) 527 ? -7.4°
Drops below altitude 10° 03:31:46 10° 344° (NNW) 1,767 ? -7.8°
Sets 03:33:53 0° 344° (NNW) 2,663 ? -8.0°
